Location: Clinton NY
(43.0598°N, 75.3602°W)
Time: 02:05:14
(UTC-04:00)

Iridium 11 - Visible Passes

Search period start: 21 September 2014 00:00
Search period end: 01 October 2014 00:00
Orbit: 776 x 779 km, 86.4° (Epoch: 20 September)

Date Brightness Start Highest point End Pass type
(mag) Time Alt. Az. Time Alt. Az. Time Alt. Az.
21 Sep 7.5 20:49:27 13° NE 20:49:27 13° NE 20:50:27 10° NE visible
21 Sep 7.3 22:29:54 28° NNW 22:29:54 28° NNW 22:32:24 10° N visible
22 Sep 6.9 21:56:19 31° N 21:56:19 31° N 21:58:56 10° N visible
22 Sep 8.4 23:36:46 11° NW 23:36:46 11° NW 23:37:15 10° NW visible
23 Sep 6.9 21:22:42 27° NNE 21:22:42 27° NNE 21:25:12 10° NNE visible
23 Sep 8.0 23:03:10 18° NW 23:03:10 18° NW 23:05:14 10° NNW visible
24 Sep 7.1 20:49:05 19° NE 20:49:05 19° NE 20:51:08 10° NNE visible
24 Sep 7.4 22:29:32 27° NW 22:29:32 27° NW 22:32:18 10° NNW visible
25 Sep 7.5 20:15:26 12° NE 20:15:26 12° NE 20:16:22 10° NE visible
25 Sep 6.7 21:55:53 37° NNW 21:55:53 37° NNW 21:59:01 10° N visible
26 Sep 6.4 21:22:12 38° NNE 21:22:12 38° NNE 21:25:26 10° N visible
26 Sep 8.2 23:02:39 15° WNW 23:02:39 15° WNW 23:04:36 10° NW visible
27 Sep 6.6 20:48:29 29° NE 20:48:29 29° NE 20:51:35 10° NNE visible
27 Sep 7.5 22:28:56 25° NW 22:28:56 25° NW 22:32:05 10° NNW visible
28 Sep 7.0 20:14:43 19° ENE 20:14:43 19° ENE 20:17:19 10° NE visible
28 Sep 6.7 21:55:10 41° NW 21:55:10 41° NW 21:58:59 10° N visible
29 Sep 7.4 19:40:55 11° ENE 19:40:55 11° ENE 19:41:44 10° ENE visible
29 Sep 5.8 21:21:22 59° N 21:21:22 59° N 21:25:34 10° N visible
29 Sep 8.4 23:01:48 11° WNW 23:01:50 11° WNW 23:03:07 10° NW visible
30 Sep 5.8 20:47:29 48° ENE 20:47:29 48° ENE 20:51:54 10° NNE visible
30 Sep 7.8 22:27:55 20° WNW 22:27:55 20° WNW 22:31:39 10° NNW visible
